OYCAT EKRK-EKRK

Flight info

Callsign OYCAT
Flight time N/A
Altitude 1500
Route ISHOEJ
Aircraft BN2P/L-V/N

Departure

Time 2026-05-09 19:00
Airport Copenhagen Roskilde Airport (EKRK)

Arrival

Time N/A
Airport Copenhagen Roskilde Airport (EKRK)
Time Latitude Longitude Altitude Speed Heading
2026-05-09 18:52 55.59022 12.12798 139 ft 0 kts 117°
2026-05-09 18:55 55.59021 12.12799 139 ft 0 kts 133°
2026-05-09 18:55 55.59002 12.12732 139 ft 16 kts 283°
2026-05-09 18:55 55.58998 12.12576 139 ft 14 kts 206°
2026-05-09 18:55 55.58921 12.12485 139 ft 13 kts 266°
2026-05-09 18:56 55.58961 12.12332 139 ft 15 kts 296°
2026-05-09 18:56 55.59008 12.12156 139 ft 17 kts 296°
2026-05-09 18:56 55.59060 12.11978 139 ft 15 kts 297°
2026-05-09 18:56 55.59078 12.11818 139 ft 12 kts 256°
2026-05-09 18:57 55.59060 12.11717 139 ft 0 kts 251°
2026-05-09 18:58 55.59049 12.11663 139 ft 13 kts 248°
2026-05-09 18:59 55.58992 12.11608 140 ft 6 kts 149°
2026-05-09 18:59 55.58947 12.11731 141 ft 36 kts 116°
2026-05-09 18:59 55.58750 12.12431 271 ft 70 kts 116°
2026-05-09 18:59 55.58533 12.13155 628 ft 65 kts 118°
2026-05-09 19:00 55.58308 12.13971 815 ft 86 kts 117°
2026-05-09 19:00 55.57958 12.16128 1159 ft 97 kts 96°
2026-05-09 19:00 55.58026 12.17347 1335 ft 102 kts 82°
2026-05-09 19:01 55.58247 12.18643 1370 ft 118 kts 76°
2026-05-09 19:01 55.58548 12.20059 1401 ft 127 kts 73°
2026-05-09 19:01 55.58903 12.21531 1433 ft 131 kts 70°
2026-05-09 19:01 55.59309 12.22973 1482 ft 130 kts 66°
2026-05-09 19:02 55.59775 12.24356 1454 ft 132 kts 62°
2026-05-09 19:02 55.60257 12.25706 1424 ft 132 kts 64°
2026-05-09 19:02 55.60739 12.27123 1378 ft 133 kts 63°
2026-05-09 19:02 55.61207 12.28514 1334 ft 133 kts 63°
2026-05-09 19:03 55.61707 12.29899 1301 ft 134 kts 60°
2026-05-09 19:03 55.62307 12.31200 1215 ft 139 kts 51°
2026-05-09 19:03 55.63032 12.32374 1133 ft 142 kts 40°
2026-05-09 19:03 55.63879 12.33172 1200 ft 136 kts 23°
2026-05-09 19:04 55.64776 12.33589 1309 ft 131 kts
2026-05-09 19:04 55.65709 12.33759 1253 ft 139 kts 10°
2026-05-09 19:04 55.66649 12.33987 1339 ft 134 kts 10°
2026-05-09 19:04 55.67565 12.34214 1422 ft 132 kts 10°
2026-05-09 19:05 55.68477 12.34434 1460 ft 134 kts 10°
2026-05-09 19:05 55.69403 12.34646 1477 ft 134 kts
2026-05-09 19:05 55.70331 12.34854 1524 ft 132 kts 12°
2026-05-09 19:05 55.71250 12.34965 1564 ft 136 kts
2026-05-09 19:06 55.72199 12.35125 1622 ft 139 kts